• In Deutschland
  • Länderverzeichnis
  • Für 7 Tage
  • Wassertemperatur
  • Satellitenkarten
  • Wetterkarte
  • Widgets
  • user-avatar
    Anmelden

    Stündliche Wetter Karachi

    Heute, 23 September, Sonntag

    Zeit Temperatur Niederschläge Wind Luftdruck Luftfeuchtigkeit
    00:00 +9°C° 0 mm 1 m/S 514 mmHg 77%
    01:00 +9°C° 0 mm 1 m/S 514 mmHg 77%
    02:00 +9°C° 0 mm 1 m/S 514 mmHg 76%
    03:00 +9°C° 0 mm 1 m/S 513 mmHg 76%
    04:00 +8°C° 0 mm 1 m/S 513 mmHg 76%
    05:00 +8°C° 0 mm 1 m/S 513 mmHg 75%
    06:00 +10°C° 0 mm 1 m/S 514 mmHg 70%
    07:00 +11°C° 0 mm 1 m/S 515 mmHg 65%
    08:00 +12°C° 0 mm 1 m/S 516 mmHg 59%
    09:00 +14°C° 0 mm 2 m/S 517 mmHg 54%
    10:00 +15°C° 0 mm 2 m/S 517 mmHg 48%
    11:00 +17°C° 0 mm 3 m/S 518 mmHg 43%
    12:00 +17°C° 0.4 mm 3 m/S 518 mmHg 44%
    13:00 +17°C° 0.4 mm 3 m/S 517 mmHg 46%
    14:00 +17°C° 0.4 mm 3 m/S 516 mmHg 48%
    15:00 +16°C° 0.4 mm 3 m/S 516 mmHg 51%
    16:00 +14°C° 0.4 mm 3 m/S 515 mmHg 54%
    17:00 +14°C° 0.4 mm 3 m/S 514 mmHg 57%
    18:00 +12°C° 0.1 mm 3 m/S 514 mmHg 62%
    19:00 +12°C° 0.1 mm 2 m/S 514 mmHg 67%
    20:00 +10°C° 0.1 mm 2 m/S 514 mmHg 72%
    21:00 +10°C° 0.1 mm 2 m/S 514 mmHg 73%
    22:00 +9°C° 0.1 mm 2 m/S 514 mmHg 73%
    23:00 +10°C° 0.1 mm 1 m/S 514 mmHg 74%

    Morgen, 24 September, Montag

    Zeit Temperatur Niederschläge Wind Luftdruck Luftfeuchtigkeit
    00:00 +10°C° 0 mm 1 m/S 514 mmHg 74%
    01:00 +9°C° 0 mm 1 m/S 514 mmHg 75%
    02:00 +9°C° 0 mm 1 m/S 513 mmHg 75%
    03:00 +9°C° 0.1 mm 1 m/S 513 mmHg 76%
    04:00 +8°C° 0.1 mm 1 m/S 513 mmHg 78%
    05:00 +8°C° 0.1 mm 1 m/S 513 mmHg 79%
    06:00 +9°C° 0.1 mm 1 m/S 514 mmHg 75%
    07:00 +10°C° 0.1 mm 1 m/S 515 mmHg 72%
    08:00 +11°C° 0.1 mm 1 m/S 516 mmHg 68%
    09:00 +12°C° 0.4 mm 2 m/S 516 mmHg 64%
    10:00 +13°C° 0.4 mm 2 m/S 517 mmHg 59%
    11:00 +13°C° 0.4 mm 3 m/S 517 mmHg 55%
    12:00 +14°C° 0.4 mm 3 m/S 517 mmHg 55%
    13:00 +14°C° 0.4 mm 3 m/S 517 mmHg 54%
    14:00 +14°C° 0.4 mm 4 m/S 516 mmHg 54%
    15:00 +14°C° 0.5 mm 4 m/S 516 mmHg 57%
    16:00 +13°C° 0.5 mm 4 m/S 515 mmHg 60%
    17:00 +13°C° 0.5 mm 3 m/S 514 mmHg 63%
    18:00 +11°C° 0.1 mm 3 m/S 514 mmHg 67%
    19:00 +10°C° 0.1 mm 3 m/S 514 mmHg 72%
    20:00 +9°C° 0.1 mm 2 m/S 514 mmHg 76%
    21:00 +9°C° 0 mm 2 m/S 514 mmHg 76%
    22:00 +9°C° 0 mm 2 m/S 514 mmHg 76%
    23:00 +8°C° 0 mm 2 m/S 514 mmHg 76%

    übermorgen, 25 September, Dienstag

    Zeit Temperatur Niederschläge Wind Luftdruck Luftfeuchtigkeit
    00:00 +8°C° 0.1 mm 2 m/S 514 mmHg 75%
    01:00 +8°C° 0.1 mm 2 m/S 514 mmHg 74%
    02:00 +9°C° 0.1 mm 1 m/S 513 mmHg 72%
    03:00 +9°C° 0 mm 1 m/S 513 mmHg 73%
    04:00 +9°C° 0 mm 1 m/S 513 mmHg 73%
    05:00 +8°C° 0 mm 1 m/S 512 mmHg 74%
    06:00 +10°C° 0 mm 1 m/S 514 mmHg 69%
    07:00 +11°C° 0 mm 1 m/S 515 mmHg 64%
    08:00 +12°C° 0 mm 1 m/S 516 mmHg 60%
    09:00 +14°C° 0.1 mm 2 m/S 517 mmHg 54%
    10:00 +15°C° 0.1 mm 2 m/S 517 mmHg 49%
    11:00 +17°C° 0.1 mm 3 m/S 518 mmHg 44%
    12:00 +17°C° 0.4 mm 3 m/S 517 mmHg 46%
    13:00 +17°C° 0.4 mm 3 m/S 517 mmHg 47%
    14:00 +17°C° 0.4 mm 3 m/S 516 mmHg 49%
    15:00 +16°C° 0.2 mm 3 m/S 515 mmHg 51%
    16:00 +16°C° 0.2 mm 3 m/S 515 mmHg 53%
    17:00 +14°C° 0.2 mm 3 m/S 514 mmHg 55%
    18:00 +13°C° 0.2 mm 3 m/S 514 mmHg 61%
    19:00 +12°C° 0.2 mm 2 m/S 514 mmHg 66%
    20:00 +10°C° 0.2 mm 2 m/S 513 mmHg 72%
    21:00 +10°C° 0.2 mm 2 m/S 513 mmHg 73%
    22:00 +10°C° 0.2 mm 1 m/S 513 mmHg 74%
    23:00 +10°C° 0.2 mm 1 m/S 513 mmHg 74%

    26 September, Mittwoch

    Zeit Temperatur Niederschläge Wind Luftdruck Luftfeuchtigkeit
    00:00 +10°C° 0 mm 1 m/S 513 mmHg 75%
    01:00 +9°C° 0 mm 1 m/S 513 mmHg 75%
    02:00 +9°C° 0 mm 1 m/S 512 mmHg 76%
    03:00 +9°C° 0.1 mm 1 m/S 512 mmHg 76%
    04:00 +9°C° 0.1 mm 1 m/S 512 mmHg 76%
    05:00 +8°C° 0.1 mm 1 m/S 512 mmHg 77%
    06:00 +10°C° 0.1 mm 1 m/S 513 mmHg 70%
    07:00 +11°C° 0.1 mm 1 m/S 515 mmHg 63%
    08:00 +13°C° 0.1 mm 1 m/S 516 mmHg 57%
    09:00 +14°C° 0.1 mm 1 m/S 517 mmHg 52%
    10:00 +16°C° 0.1 mm 2 m/S 517 mmHg 48%
    11:00 +17°C° 0.1 mm 2 m/S 518 mmHg 44%
    12:00 +17°C° 1 mm 3 m/S 517 mmHg 45%
    13:00 +17°C° 1 mm 3 m/S 516 mmHg 47%
    14:00 +17°C° 1 mm 3 m/S 516 mmHg 49%
    15:00 +16°C° 0.9 mm 3 m/S 515 mmHg 53%
    16:00 +16°C° 0.9 mm 3 m/S 514 mmHg 57%
    17:00 +14°C° 0.9 mm 3 m/S 514 mmHg 62%
    18:00 +13°C° 0.5 mm 3 m/S 513 mmHg 66%
    19:00 +12°C° 0.5 mm 2 m/S 513 mmHg 71%
    20:00 +10°C° 0.5 mm 2 m/S 513 mmHg 75%
    21:00 +10°C° 0.2 mm 2 m/S 513 mmHg 75%
    22:00 +10°C° 0.2 mm 2 m/S 513 mmHg 76%
    23:00 +10°C° 0.2 mm 1 m/S 513 mmHg 76%

    27 September, Donnerstag

    Zeit Temperatur Niederschläge Wind Luftdruck Luftfeuchtigkeit
    00:00 +10°C° 0.2 mm 1 m/S 513 mmHg 77%
    01:00 +10°C° 0.2 mm 1 m/S 512 mmHg 78%
    02:00 +9°C° 0.2 mm 1 m/S 512 mmHg 79%
    03:00 +9°C° 0.2 mm 1 m/S 512 mmHg 78%
    04:00 +9°C° 0.2 mm 1 m/S 512 mmHg 77%
    05:00 +9°C° 0.2 mm 1 m/S 512 mmHg 77%
    06:00 +10°C° 0 mm 1 m/S 513 mmHg 70%
    07:00 +11°C° 0 mm 1 m/S 514 mmHg 64%
    08:00 +12°C° 0 mm 0 m/S 515 mmHg 57%
    09:00 +14°C° 0 mm 1 m/S 516 mmHg 50%
    10:00 +16°C° 0 mm 1 m/S 517 mmHg 43%
    11:00 +18°C° 0 mm 2 m/S 518 mmHg 36%
    12:00 +18°C° 0.9 mm 2 m/S 517 mmHg 38%
    13:00 +18°C° 0.9 mm 3 m/S 516 mmHg 41%
    14:00 +19°C° 0.9 mm 3 m/S 516 mmHg 43%
    15:00 +17°C° 1.6 mm 3 m/S 515 mmHg 48%
    16:00 +16°C° 1.6 mm 3 m/S 514 mmHg 53%
    17:00 +14°C° 1.6 mm 3 m/S 513 mmHg 59%
    18:00 +13°C° 0.4 mm 3 m/S 513 mmHg 64%
    19:00 +12°C° 0.4 mm 3 m/S 513 mmHg 69%
    20:00 +10°C° 0.4 mm 2 m/S 513 mmHg 75%
    21:00 +10°C° 0.1 mm 2 m/S 513 mmHg 75%
    22:00 +10°C° 0.1 mm 2 m/S 513 mmHg 74%
    23:00 +9°C° 0.1 mm 2 m/S 513 mmHg 74%

    28 September, Freitag

    Zeit Temperatur Niederschläge Wind Luftdruck Luftfeuchtigkeit
    00:00 +9°C° 0 mm 2 m/S 513 mmHg 74%
    01:00 +10°C° 0 mm 1 m/S 512 mmHg 74%
    02:00 +9°C° 0 mm 1 m/S 512 mmHg 74%
    03:00 +9°C° 0.1 mm 1 m/S 512 mmHg 74%
    04:00 +9°C° 0.1 mm 1 m/S 512 mmHg 73%
    05:00 +8°C° 0.1 mm 1 m/S 511 mmHg 73%
    06:00 +10°C° 0 mm 1 m/S 513 mmHg 66%
    07:00 +12°C° 0 mm 1 m/S 514 mmHg 59%
    08:00 +14°C° 0 mm 1 m/S 516 mmHg 51%
    09:00 +15°C° 0.1 mm 1 m/S 517 mmHg 46%
    10:00 +17°C° 0.1 mm 2 m/S 517 mmHg 41%
    11:00 +18°C° 0.1 mm 2 m/S 518 mmHg 35%
    12:00 +18°C° 0.7 mm 3 m/S 517 mmHg 38%
    13:00 +19°C° 0.7 mm 3 m/S 517 mmHg 40%
    14:00 +19°C° 0.7 mm 3 m/S 516 mmHg 42%
    15:00 +18°C° 1.4 mm 3 m/S 515 mmHg 47%
    16:00 +17°C° 1.4 mm 3 m/S 515 mmHg 52%
    17:00 +16°C° 1.4 mm 3 m/S 514 mmHg 57%
    18:00 +13°C° 0.5 mm 3 m/S 514 mmHg 63%
    19:00 +12°C° 0.5 mm 3 m/S 513 mmHg 69%
    20:00 +12°C° 0.5 mm 2 m/S 513 mmHg 75%
    21:00 +10°C° 0.1 mm 2 m/S 513 mmHg 75%
    22:00 +10°C° 0.1 mm 2 m/S 513 mmHg 75%
    23:00 +10°C° 0.1 mm 2 m/S 513 mmHg 75%
    Mehr zeigen